Flag for Egypt Weather past 2 weeks in Alexandria, Egypt

Now
61 °F

Clear.


Feels Like: 61 °F
Forecast: 60 / 66 °F
Wind: 8 mph from South

Location: Alexandria / Nouzha

Current Time: Apr 2, 2015 at 9:09:40 AM

Latest Report: Apr 2, 2015 at 8:00 AM


Visibility: 4 mi

Pressure: 29.95 "Hg

Humidity: 72%

Dew point: 52 °F

Location of AlexandriaLocation

Historic Weather in Alexandria — Graph

°F

Alexandria temperature yesterday

Maximum temperature yesterday: 70 °F (at 1:00 PM)
Minimum temperature yesterday: 55 °F (at 10:00 PM)
Average temperature yesterday: 63 °F

Past Weeks' High & Low Weather Summary

 TemperatureHumidityPressure
High77 °F (Mar 27, 1:00 PM)100% (Mar 25, 11:00 PM)30.18 "Hg (Mar 25, 11:00 PM)
Low50 °F (Mar 21, 5:00 AM)21% (Mar 29, 2:00 PM)29.65 "Hg (Mar 27, 2:00 PM)
Average63 °F65%29.96 "Hg
* Reported Mar 18 7:00 AM — Apr 2 7:00 AM, Alexandria, Weather by CustomWeather, © 2015

Note: Actual official high and low records may vary slightly from our data, if they occured in-between our weather recording intervals... More about our weather records

Advertising

Alexandria weather history for previous 24 hours

 ConditionsComfort  
Time TempWeatherWind HumidityBarometerVisibility
7:00 AM
Thu, Apr 2
54 °FFog.5 mph88%29.95 "Hg2 mi
6:00 AM50 °FFog.No wind94%29.92 "Hg2 mi
5:00 AM52 °FClear.No wind94%29.92 "Hg10 mi
4:00 AM52 °FClear.6 mph88%29.95 "Hg10 mi
3:00 AM52 °FClear.5 mph88%29.95 "Hg10 mi
2:00 AM52 °FClear.5 mph94%29.98 "Hg10 mi
1:00 AM54 °FClear.No wind82%29.98 "Hg10 mi
12:00 AM57 °FClear.No wind82%29.98 "Hg10 mi
11:00 PM
Wed, Apr 1
55 °FClear.No wind88%30.01 "Hg10 mi
10:00 PM55 °FClear.5 mph88%30.01 "Hg10 mi
9:00 PM57 °FClear.5 mph77%30.01 "Hg10 mi
8:00 PM61 °FClear.5 mph72%30.01 "Hg10 mi
7:00 PM63 °FPassing clouds.8 mph68%29.98 "HgN/A
6:00 PM64 °FPassing clouds.8 mph60%29.98 "HgN/A
5:00 PM66 °FScattered clouds.12 mph56%30.01 "HgN/A
4:00 PM66 °FScattered clouds.12 mph60%30.01 "HgN/A
3:00 PM70 °FScattered clouds.10 mph53%30.01 "HgN/A
2:00 PM68 °FScattered clouds.12 mph60%30.01 "HgN/A
1:00 PM70 °FPassing clouds.13 mph53%30.04 "HgN/A
12:00 PM68 °FPassing clouds.8 mph56%30.04 "HgN/A
11:00 AM68 °FPassing clouds.10 mph56%30.04 "HgN/A
10:00 AM66 °FPassing clouds.12 mph60%30.04 "HgN/A
9:00 AM66 °FScattered clouds.10 mph60%30.01 "HgN/A
Weather by CustomWeather, © 2015

See weather overviewHow to use our weather pages